| time (UTC) | temp F | wind direction | speed MPH | gust MPH | rain 1hr in | rain 24hr in | rain mn in | humidity % | barometer mb |
| 20260504173351 | 71 | 0 | 5.0 | 0.0 | 0.00 | 0.00 | 0.00 | 87 | 1012.0 |
| 20260504170350 | 71 | 200 | 4.0 | 0.0 | 0.00 | 0.00 | 0.00 | 88 | 1014.0 |
| 20260504160347 | 69 | 230 | 3.0 | 0.0 | 0.00 | 0.00 | 0.00 | 92 | 1015.0 |
| 20260504150345 | 63 | 300 | 3.0 | 0.0 | 0.00 | 0.00 | 0.00 | 94 | 1016.0 |
| 20260504140343 | 63 | 10 | 3.0 | 0.0 | 0.00 | 0.00 | 0.00 | 94 | 1016.0 |
| 20260504130341 | 64 | 10 | 3.0 | 0.0 | 0.00 | 0.00 | 0.00 | 94 | 1016.0 |
| 20260504110337 | 57 | 200 | 3.0 | 0.0 | 0.00 | 0.00 | 0.00 | 91 | 1015.0 |
| 20260504100335 | 58 | 200 | 3.0 | 0.0 | 0.00 | 0.00 | 0.00 | 91 | 1015.0 |
| 20260504080331 | 59 | 200 | 3.0 | 0.0 | 0.00 | 0.00 | 0.00 | 91 | 1015.0 |
| 20260504070329 | 60 | 200 | 3.0 | 0.0 | 0.00 | 0.00 | 0.00 | 91 | 1016.0 |
| 20260504050325 | 62 | 200 | 3.0 | 0.0 | 0.00 | 0.00 | 0.00 | 91 | 1017.0 |
| 20260504043324 | 63 | 200 | 3.0 | 0.0 | 0.00 | 0.00 | 0.00 | 91 | 1016.0 |
| 20260504040323 | 63 | 200 | 3.0 | 0.0 | 0.00 | 0.00 | 0.00 | 91 | 1017.0 |
| 20260504033322 | 64 | 200 | 3.0 | 0.0 | 0.00 | 0.00 | 0.00 | 91 | 1016.0 |
| 20260504030321 | 64 | 200 | 3.0 | 0.0 | 0.00 | 0.00 | 0.00 | 91 | 1016.0 |
| 20260504023320 | 65 | 200 | 3.0 | 0.0 | 0.00 | 0.00 | 0.00 | 91 | 1016.0 |
| 20260504020319 | 65 | 200 | 3.0 | 0.0 | 0.00 | 0.00 | 0.00 | 91 | 1016.0 |
| 20260504013318 | 66 | 200 | 3.0 | 0.0 | 0.00 | 0.00 | 0.00 | 90 | 1015.0 |
| 20260504010317 | 66 | 200 | 3.0 | 0.0 | 0.00 | 0.00 | 0.00 | 91 | 1014.0 |
| 20260504003316 | 67 | 200 | 3.0 | 0.0 | 0.00 | 0.00 | 0.00 | 91 | 1014.0 |
| 20260504000314 | 67 | 300 | 3.0 | 0.0 | 0.00 | 0.00 | 0.00 | 91 | 1013.0 |
| 20260503233313 | 68 | 300 | 3.0 | 0.0 | 0.00 | 0.00 | 0.00 | 91 | 1012.0 |
| 20260503230312 | 68 | 300 | 3.0 | 0.0 | 0.00 | 0.00 | 0.00 | 91 | 1011.0 |
| 20260503223311 | 69 | 300 | 3.0 | 0.0 | 0.00 | 0.00 | 0.00 | 91 | 1011.0 |
| 20260503220310 | 69 | 300 | 3.0 | 0.0 | 0.00 | 0.00 | 0.00 | 91 | 1010.0 |
| 20260503213309 | 70 | 300 | 3.0 | 0.0 | 0.00 | 0.00 | 0.00 | 91 | 1010.0 |
| 20260503210308 | 70 | 300 | 3.0 | 0.0 | 0.00 | 0.00 | 0.00 | 91 | 1010.0 |
| 20260503203307 | 71 | 300 | 3.0 | 0.0 | 0.00 | 0.00 | 0.00 | 91 | 1010.0 |
| 20260503200306 | 71 | 300 | 3.0 | 0.0 | 0.00 | 0.00 | 0.00 | 91 | 1011.0 |
| 20260503193305 | 72 | 300 | 3.0 | 0.0 | 0.00 | 0.00 | 0.00 | 91 | 1010.0 |
| 20260503190304 | 71 | 360 | 3.0 | 0.0 | 0.00 | 0.00 | 0.00 | 91 | 1011.0 |
| 20260503183303 | 72 | 360 | 3.0 | 0.0 | 0.00 | 0.00 | 0.00 | 91 | 1011.0 |
| 20260503180302 | 71 | 0 | 3.0 | 0.0 | 0.00 | 0.00 | 0.00 | 92 | 1012.0 |